Cloud_Cover
35 99 28 18 5 4 16 100 100 98 5 9 4 1 0 0 0 0 5 4 0 0 0 0 0 0 0 3 4 2 4 0
27 69 41 45 30 16 70 100 100 91 100 91 5 7 5 0 0 0 3 83 3 0 0 0 0 0 0 0 0 4 20 1
47 41 51 96 74 45 41 96 100 100 100 97 71 58 41 5 3 4 5 6 29 3 0 0 0 6 0 0 0 0 0 2
22 27 28 39 100 98 92 98 58 97 100 18 62 100 29 40 5 5 5 85 25 5 5 51 74 61 21 13 0 0 0 0
41 35 24 29 27 82 100 100 100 100 100 56 55 95 100 52 52 29 31 98 37 23 73 18 95 100 42 23 1 0 0 0
25 84 64 72 46 74 78 97 100 100 100 100 100 89 100 98 58 71 65 98 40 97 100 100 22 11 10 16 7 0 0 0
1 92 100 100 93 78 100 97 100 100 100 100 100 94 99 68 61 98 74 70 53 100 100 100 57 5 5 5 2 0 0 0
0 12 75 100 100 66 100 98 92 100 100 100 100 100 100 100 85 76 100 65 81 100 100 100 82 6 5 5 99 22 0 0
0 0 33 58 87 58 77 100 100 100 100 100 100 100 100 100 100 96 56 95 97 95 100 100 100 41 7 32 100 15 0 0
5 0 0 36 10 52 81 100 100 100 100 100 100 100 100 100 100 100 77 100 100 100 100 100 100 42 24 13 6 49 21 0
0 4 0 2 5 13 40 70 100 100 100 100 100 100 100 100 100 100 100 93 100 100 100 100 100 99 57 50 39 49 88 20
0 0 6 3 5 31 38 41 39 62 96 48 98 100 100 100 100 100 100 100 100 100 100 100 96 91 76 67 96 84 89 46
0 36 10 53 17 13 5 8 23 92 10 38 12 43 100 100 100 100 100 100 100 100 100 100 100 90 100 100 100 100 100 100
0 29 87 71 7 4 2 9 17 92 67 81 93 100 74 43 94 100 100 100 100 100 100 100 100 100 100 100 100 82 100 76
5 6 76 100 69 81 89 72 68 91 87 100 100 76 35 6 42 66 100 100 100 100 91 100 100 100 100 57 93 71 51 90
72 5 3 64 100 100 100 58 100 100 100 100 100 100 75 32 52 100 100 100 100 100 100 100 88 100 100 96 49 24 9 10
92 62 54 85 57 100 100 100 99 100 100 100 100 100 100 100 100 100 100 100 100 100 100 100 97 100 100 100 97 89 91 37
100 98 98 100 97 99 100 100 100 100 100 100 100 100 100 100 100 100 100 100 100 100 100 83 100 100 100 100 97 99 98 89
100 100 100 98 100 100 100 100 100 100 100 100 100 100 100 100 100 100 100 100 100 100 100 100 100 100 100 100 100 81 94 16
100 100 100 100 99 100 100 100 100 100 100 100 100 100 100 100 100 100 100 100 100 100 100 100 100 100 100 100 100 100 99 4